Theta_e
309 310 310 311 310 311 313 313 315 318 316 313 307 304 305 308 309 308 305 308 312 313 313 312 313 314 313 312 314 314 312 313 313 313 312 311 311 313 313 313 312 312 312 312 313
309 310 311 310 308 313 317 318 318 316 311 307 305 306 307 307 305 308 313 313 313 313 313 312 313 314 314 314 315 314 311 314 313 312 312 313 313 313 313 312 313 313 313 314 314
308 309 309 309 310 315 317 317 315 310 307 309 307 309 310 312 312 314 311 311 310 311 311 311 313 313 313 314 314 313 313 314 314 313 313 313 313 313 313 312 313 313 312 313 314
308 309 310 310 310 315 316 316 313 309 310 311 311 311 311 312 312 314 312 313 314 314 314 314 314 314 313 313 314 311 313 314 313 314 314 313 313 313 313 313 312 313 313 314 314
306 306 310 311 312 314 314 314 313 307 308 310 312 311 313 316 316 316 315 315 314 314 314 314 313 313 312 312 314 314 313 314 314 314 314 314 314 313 314 313 313 313 314 315 315
308 312 314 314 314 313 313 313 309 310 312 313 314 314 315 314 314 314 314 312 314 313 313 313 313 313 313 312 312 313 313 313 313 313 313 313 313 313 314 314 314 315 315 315 315
311 313 312 314 313 312 312 308 312 312 312 311 312 313 314 314 312 313 313 312 312 314 314 312 310 309 313 311 313 313 313 312 313 313 313 314 312 313 314 314 314 314 315 315 315
311 312 312 312 312 311 311 310 311 310 311 311 309 309 312 313 313 311 312 310 311 311 311 311 312 311 313 312 312 312 311 311 311 314 314 313 312 311 313 313 313 313 314 315 313
308 310 311 311 311 309 309 309 310 309 310 309 309 309 311 310 310 308 308 309 309 311 312 312 313 313 313 313 311 309 311 313 312 312 314 314 313 312 313 312 312 312 311 310 312
310 310 310 309 308 308 307 307 308 308 310 309 308 308 308 307 308 307 307 308 310 310 311 312 313 310 307 310 308 311 312 312 311 310 311 311 311 311 313 312 312 310 310 312 313
308 309 308 307 308 309 310 310 308 307 308 308 308 308 308 308 310 310 310 310 310 310 310 312 309 307 307 308 309 309 307 307 307 307 309 308 308 308 310 311 308 308 310 313 313
306 307 307 307 307 307 306 307 308 309 308 308 307 307 309 310 310 310 309 309 309 309 307 306 307 307 308 307 307 308 307 306 306 308 308 306 306 305 306 307 308 308 312 312 312
306 307 308 308 308 308 307 306 306 308 311 308 308 307 308 308 309 309 309 308 309 308 308 306 307 307 307 307 308 308 307 307 308 307 306 305 305 304 305 305 308 311 311 311 313
303 304 307 307 307 306 307 307 307 307 301 304 308 308 309 309 309 309 309 307 308 309 306 306 307 307 307 308 307 306 306 308 309 307 306 305 306 304 306 309 309 310 311 312 314
306 306 305 306 305 306 308 307 307 310 299 303 306 307 309 309 308 308 309 307 307 306 304 303 308 307 307 307 306 306 306 307 308 308 306 306 303 304 310 312 310 309 311 312 311
305 305 305 305 305 305 306 306 310 302 298 306 308 308 308 309 309 309 308 308 307 306 305 304 306 306 305 307 306 306 307 308 307 306 307 306 305 305 309 311 310 310 311 311 310
303 306 306 305 305 305 306 309 303 302 304 306 307 308 308 308 307 308 306 304 303 299 300 302 307 306 307 306 306 306 307 306 305 307 306 308 307 307 307 309 309 308 310 311 310
302 304 306 305 304 306 310 305 302 305 308 308 309 308 309 307 306 307 305 302 302 302 299 302 302 306 306 306 306 306 310 310 309 304 306 307 311 309 307 309 311 311 310 311 310
302 304 306 306 304 307 312 302 305 308 308 308 307 308 305 308 306 304 304 301 301 301 301 302 304 303 304 305 305 308 306 309 311 304 310 307 307 307 309 309 308 309 310 310 310
306 305 310 306 304 309 304 308 309 309 308 308 309 306 305 304 304 303 302 302 302 302 301 302 302 302 305 304 304 306 305 304 303 307 309 307 307 308 310 308 307 307 309 309 309
306 306 311 307 305 312 301 306 309 309 308 307 308 307 306 304 303 303 303 302 302 302 302 302 300 301 304 304 305 305 305 306 302 307 304 303 304 303 307 306 306 306 309 309 309
305 304 309 307 307 306 304 310 308 308 307 306 306 305 305 305 304 304 303 302 302 302 302 301 300 300 301 302 302 303 304 305 304 302 304 300 305 304 306 305 307 308 309 309 309
305 305 309 307 302 303 307 307 307 307 306 306 306 305 305 304 303 302 302 303 302 301 301 301 298 297 299 299 302 302 301 303 299 298 302 303 304 305 305 306 308 308 309 310 309
305 303 311 310 307 305 306 305 307 307 306 306 305 303 303 302 301 302 303 303 302 301 304 302 297 299 298 300 301 303 302 302 300 293 296 302 302 305 306 305 305 308 309 309 309
307 306 307 303 304 307 306 305 305 306 306 305 304 303 302 302 302 301 302 302 302 303 302 299 295 299 300 300 301 301 301 301 299 301 299 300 301 301 301 301 301 302 302 302 303
310 307 305 305 305 306 305 304 305 305 305 304 304 304 302 303 301 301 300 300 300 300 299 298 296 293 296 300 299 300 300 301 301 301 302 302 302 302 302 302 301 303 304 305 305
309 307 304 306 306 306 307 306 306 305 306 305 304 303 302 303 304 304 302 302 300 298 297 298 295 295 300 299 300 299 300 301 300 299 301 301 301 300 300 301 303 305 305 305 306
Wind_Speed
24 20 18 18 16 17 19 23 21 19 15 15 16 19 18 15 13 11 14 12 12 11 9 7 7 6 3 2 2 1 3 2 2 2 2 3 3 2 1 2 3 5 5 7 13
23 22 19 17 19 20 26 24 26 21 19 18 20 19 18 18 16 22 16 12 9 8 7 6 5 3 3 3 2 3 2 4 0 0 2 0 1 1 2 1 6 12 13 11 10
24 24 22 20 21 29 28 26 27 23 23 23 20 20 20 13 14 12 10 10 9 8 6 4 3 4 1 1 1 0 3 1 1 2 0 3 4 2 2 5 15 10 16 15 16
23 23 25 28 35 29 34 28 26 22 22 18 13 10 3 2 4 8 13 10 10 9 7 8 7 5 1 1 2 2 6 6 3 2 1 2 5 5 11 15 19 15 19 20 20
33 33 34 31 26 28 23 22 19 18 16 12 9 8 8 16 11 9 10 8 8 9 10 9 13 8 3 6 3 2 3 7 7 11 9 10 12 10 14 21 21 21 19 19 18
35 36 33 31 28 22 20 16 20 18 16 15 13 11 9 10 11 6 5 7 5 7 8 9 8 8 4 4 3 7 8 13 13 17 15 9 13 11 14 13 15 14 19 18 17
29 29 28 24 25 23 21 21 20 19 15 14 10 11 19 11 10 8 7 10 5 5 6 8 6 6 6 8 10 8 6 7 12 14 6 5 5 8 26 24 24 23 16 14 17
27 23 21 19 19 18 19 17 15 13 12 11 10 6 8 8 4 2 2 5 5 7 8 7 8 5 2 6 7 5 2 4 6 6 4 7 7 11 15 8 13 18 22 22 12
23 20 18 17 16 16 15 13 10 9 8 7 9 4 4 3 1 2 3 5 7 5 8 8 9 3 3 2 4 6 3 4 8 10 4 5 5 11 17 16 16 16 18 19 19
19 19 18 15 13 12 11 10 7 3 2 3 4 3 2 1 4 7 6 4 4 9 9 2 2 2 3 2 3 5 5 5 7 5 6 9 12 11 29 24 21 21 10 9 12
12 13 12 10 11 8 4 3 2 1 14 7 5 4 2 2 2 6 6 6 4 7 2 2 2 4 7 5 6 4 5 7 7 8 6 9 15 12 19 22 20 21 12 12 13
8 6 5 12 14 16 15 9 7 2 3 4 5 4 2 5 3 3 6 3 3 2 3 4 4 7 6 5 4 2 5 7 7 4 4 7 17 14 10 13 23 15 11 7 13
9 5 6 2 8 13 16 16 10 2 1 2 2 3 3 3 2 3 6 5 2 3 2 4 6 8 3 4 5 3 5 5 6 7 5 5 10 8 7 15 13 13 7 5 10
9 4 4 9 9 14 10 16 12 1 4 5 3 2 3 4 2 3 5 2 2 2 5 5 3 1 3 4 1 5 3 5 8 6 4 5 6 6 6 1 6 12 5 4 8
11 9 9 11 12 13 11 13 6 1 5 3 4 3 5 2 6 1 4 1 2 4 4 6 3 3 3 3 0 7 4 5 4 3 4 4 2 7 2 3 6 8 4 4 7
13 11 9 9 12 12 11 9 2 6 3 4 3 3 4 1 2 3 2 4 5 3 2 7 4 3 5 3 4 6 5 5 0 1 2 5 5 6 3 6 4 4 6 5 7
16 13 9 9 11 11 6 2 5 6 2 5 3 3 3 3 2 2 2 4 3 6 5 6 3 2 3 3 5 6 4 4 4 2 5 0 4 10 6 6 7 8 7 5 6
16 14 8 4 9 7 3 4 7 3 3 3 3 3 2 2 2 2 1 2 3 3 3 3 7 2 2 3 3 2 0 2 5 3 5 3 6 6 5 9 9 6 5 5 6
16 12 3 4 6 4 2 5 5 5 2 5 5 2 3 2 1 3 1 3 3 3 1 5 6 5 3 2 5 1 1 1 3 2 4 4 7 7 3 3 4 7 8 9 6
18 8 3 7 5 4 3 3 3 3 2 1 0 1 3 4 2 4 2 3 5 4 7 2 6 3 4 2 2 2 1 4 2 4 5 5 6 5 5 6 6 6 12 11 8
12 3 2 7 5 2 2 4 3 3 4 4 3 3 3 3 2 2 4 2 4 4 5 4 4 6 2 4 5 1 1 1 3 3 3 3 7 6 7 8 9 10 15 11 10
6 2 3 5 2 2 1 3 2 3 3 3 2 4 4 2 3 3 4 5 9 7 3 3 3 5 10 4 4 3 6 5 4 4 3 3 7 4 5 8 12 14 15 14 13
12 2 1 3 1 2 4 3 3 3 3 3 3 6 2 3 3 4 4 3 12 7 6 5 2 5 8 5 3 4 4 4 4 2 6 4 6 2 3 5 11 13 15 17 16
6 3 1 1 2 2 2 3 2 3 3 4 4 2 2 3 5 4 3 2 8 5 6 6 3 7 7 7 3 4 5 6 5 3 3 9 10 6 6 7 10 17 19 19 21
4 3 3 3 2 2 0 2 3 3 5 6 3 7 7 4 3 5 5 1 3 5 5 3 6 5 13 19 15 18 16 12 11 10 7 2 8 11 8 9 17 26 28 27 27
4 3 3 6 8 3 4 4 4 3 6 5 5 2 7 6 8 6 5 4 7 2 6 3 4 2 7 9 9 10 16 19 19 20 21 22 28 24 32 23 20 20 14 16 18
5 7 3 6 3 2 4 6 7 5 7 8 11 3 6 15 24 24 16 12 7 9 8 5 2 3 6 5 8 7 9 14 6 6 17 11 14 5 6 7 14 17 15 18 20
Wind_Direction
71 51 77 90 95 113 113 124 159 146 132 119 122 122 124 120 112 104 79 88 91 93 92 93 104 108 95 91 55 64 66 243 297 169 187 193 153 134 140 173 254 206 225 264 290
69 70 64 79 96 118 114 117 122 122 118 124 123 119 115 109 111 88 83 85 90 90 76 78 88 45 44 26 24 80 123 232 304 36 165 40 117 257 253 170 266 263 253 262 273
62 64 65 79 100 101 109 104 102 99 106 104 103 110 112 100 68 46 81 84 78 75 68 76 76 32 47 340 302 306 215 320 298 114 4 297 299 259 274 274 243 243 271 272 273
64 61 72 90 122 89 98 94 98 108 117 112 105 117 113 24 92 68 71 70 64 51 55 38 3 7 331 275 218 264 255 262 254 223 182 243 285 287 245 247 265 271 275 274 274
79 86 86 96 99 81 89 91 94 105 119 104 87 77 83 80 69 96 54 42 60 63 32 25 32 12 13 336 288 257 289 314 289 298 280 262 240 250 254 264 269 272 265 260 266
85 95 96 100 95 92 79 92 93 90 84 80 80 68 96 82 83 68 36 22 50 54 31 15 11 349 324 309 313 313 298 294 303 292 279 258 259 247 262 268 271 264 259 252 254
76 88 93 86 81 73 74 89 89 89 78 66 71 69 77 78 82 61 35 27 30 25 21 5 346 344 337 321 322 289 301 309 271 268 235 269 277 235 263 273 262 260 256 245 251
76 85 83 82 79 69 85 97 101 86 76 64 56 55 75 90 76 32 338 332 8 30 16 2 358 321 238 304 319 313 14 342 303 338 233 169 278 276 290 299 275 248 249 260 246
80 89 89 86 88 94 93 100 105 93 92 83 53 73 137 129 265 333 310 335 336 350 322 322 323 319 320 300 344 10 310 318 322 304 279 210 261 272 288 303 300 292 285 280 251
82 91 96 89 83 86 87 87 85 118 152 82 54 107 102 30 41 29 18 11 356 342 348 278 282 16 1 55 249 272 264 235 244 280 311 283 267 268 278 282 281 291 282 250 266
76 95 94 44 56 30 341 297 333 23 55 60 38 65 52 21 355 33 25 340 306 270 237 244 74 274 266 243 245 246 256 267 266 264 280 265 274 268 270 270 272 281 247 249 285
58 93 77 96 63 47 38 58 35 5 343 43 41 41 47 350 338 322 349 334 327 297 315 20 258 257 257 268 304 313 291 292 285 290 301 281 282 273 249 250 252 244 218 277 306
45 65 134 57 353 4 19 27 15 320 208 323 339 342 15 322 308 303 336 339 312 307 319 164 249 306 294 304 306 274 263 274 272 310 264 264 282 255 269 243 223 181 188 294 320
23 2 289 304 327 348 356 1 356 41 72 304 350 4 342 336 292 283 325 3 346 292 320 246 272 89 328 283 4 301 256 284 296 350 282 49 292 281 274 146 154 172 182 327 319
354 341 324 328 333 334 333 344 352 4 48 271 304 321 314 307 311 316 307 321 256 263 81 261 259 270 301 227 229 251 290 280 259 262 311 311 113 275 115 156 188 200 194 297 307
339 326 310 330 341 338 328 334 333 39 290 350 307 326 355 265 268 303 303 289 288 294 227 242 268 244 218 246 216 279 311 310 216 135 306 233 157 281 216 206 188 189 220 261 299
343 336 321 308 327 339 344 7 34 83 326 318 327 347 348 283 301 205 312 359 25 9 357 321 256 270 204 330 3 35 47 334 346 349 233 213 150 253 248 222 182 194 224 254 293
339 338 330 322 334 349 24 51 68 245 263 304 308 305 247 323 257 271 347 358 30 64 327 14 332 210 177 190 221 258 47 137 301 304 287 309 233 251 260 197 181 186 221 240 285
342 339 353 358 353 354 330 52 195 198 258 332 319 327 308 265 265 14 234 183 170 126 43 355 276 317 230 193 129 349 55 299 258 197 278 266 295 311 74 131 193 212 232 250 274
344 345 48 359 354 337 68 203 205 218 198 158 292 18 318 308 339 10 250 189 171 168 152 187 300 265 308 27 250 184 207 47 342 328 298 288 284 245 242 230 233 246 241 263 281
349 6 21 351 345 354 121 236 256 214 203 183 227 273 242 278 253 249 256 196 191 182 172 164 134 288 338 208 190 116 289 158 130 188 204 300 277 216 236 207 212 232 245 258 275
353 20 327 339 48 66 155 218 285 217 215 250 220 234 232 257 254 251 239 214 176 164 191 216 166 262 230 266 300 203 202 160 133 254 212 167 272 270 253 210 210 238 253 262 265
335 297 313 341 89 321 293 271 245 209 226 193 244 212 226 260 283 224 247 200 177 163 173 170 266 324 340 6 356 244 220 151 112 59 222 157 259 299 252 257 240 247 257 266 269
333 343 246 201 163 160 344 270 255 224 253 219 244 215 170 259 223 286 269 225 209 208 158 157 192 201 214 227 168 220 215 192 147 139 210 232 277 237 280 254 266 268 267 271 270
322 317 318 296 282 187 51 269 262 234 212 217 271 223 188 238 243 221 234 247 190 197 164 158 225 213 252 261 260 257 244 223 209 211 206 291 233 267 244 248 265 278 281 276 264
296 313 314 278 284 230 189 229 220 258 170 230 215 250 201 222 211 237 194 199 219 146 166 190 277 8 281 258 241 251 242 235 234 240 246 258 277 278 274 266 267 267 267 267 254
278 276 266 271 264 203 233 213 202 178 251 231 212 200 239 241 252 265 265 259 233 164 187 170 183 21 266 337 309 293 225 196 196 209 220 223 233 261 272 270 259 257 262 259 259